Location: Vancouver
(49.2500°N, 123.1330°W)
Time: 14:54:41
(UTC-08:00)

Daily predictions for brighter satellites

Satellite Brightness Start Highest point End
(mag) Time Altitude Azimuth Time Altitude Azimuth Time Altitude Azimuth
Cosmos 841 Rocket 3.6 17:22:13 10° SSW 17:27:30 88° WNW 17:32:49 10° NNE
SJ-12 4.1 17:27:15 10° SSE 17:31:23 84° WSW 17:35:32 10° NNW
COSMO-SKYMED 1 3.8 17:28:02 10° NE 17:31:29 22° E 17:34:54 10° SE
Cosmos 2151 3.4 17:28:48 10° SSE 17:32:43 39° E 17:36:39 10° NNE
YAOGAN 1 2.5 17:29:52 10° SSE 17:34:11 76° ENE 17:38:33 10° N
Cosmos 2369 Rocket 3.6 17:34:51 10° N 17:38:41 18° NE 17:42:30 10° ENE
Cosmos 2237 Rocket 2.4 17:34:15 10° S 17:39:43 56° ESE 17:45:15 10° NE
AQUARIUS 4.3 17:35:21 10° SSE 17:39:51 83° WSW 17:44:23 10° NNW
Thor Agena Rocket 3.7 17:35:26 10° NNE 17:40:36 54° E 17:45:39 10° S
Meteor 1-27 4.3 17:37:54 10° N 17:43:43 65° ENE 17:49:30 10° SSE
Meteor 2-10 4.0 17:40:11 10° N 17:45:17 64° ENE 17:50:28 10° SSE
Cosmos 44 Rocket 3.4 17:40:27 10° SW 17:45:35 85° NW 17:50:37 10° NE
SL-16 R/B 3.0 17:43:34 10° SSE 17:48:26 31° ESE 17:53:20 10° NE
SL-14 R/B 3.4 17:44:42 10° S 17:48:34 57° E 17:52:32 10° NNE
SPOT 3 Rocket 3.7 17:43:36 10° SSE 17:48:46 79° WSW 17:53:59 10° NNW
COSMOS 2428 3.5 17:44:57 10° SW 17:50:31 51° NW 17:56:06 10° NNE
Cosmos 1484 Rocket 2.8 17:46:45 10° SSE 17:50:41 62° ENE 17:54:39 10° N
Cosmos 1340 Rocket 3.3 17:49:09 10° SSE 17:52:47 37° E 17:56:26 10° NNE
Meteor 1-28 Rocket 4.4 17:50:27 10° NE 17:53:29 23° E 17:56:30 10° SSE
Resurs 01 Rocket 3.1 17:52:12 10° E 17:55:05 17° ENE 17:57:58 10° NNE
Lacrosse 4 Rocket 1.8 17:52:48 10° NNW 17:56:38 37° NE 18:00:25 10° ESE
Cosmos 304 Rocket 4.3 17:52:11 10° S 17:56:39 39° ESE 18:01:06 10° NE
Cosmos 2297 3.7 17:51:24 10° NNW 17:57:09 83° ENE 18:02:54 10° SSE
Blok-2BL 4.3 17:54:46 10° NNW 17:57:41 27° NE 17:59:41 16° E
Cosmos 1151 Rocket 3.5 17:54:00 10° NNW 17:58:16 66° W 18:02:30 10° S
Cosmos 1869 4.4 17:59:49 10° NNE 18:03:10 24° ENE 18:06:29 10° SE
CZ-4C R/B 3.8 17:58:50 10° NW 18:04:05 26° NNE 18:08:40 14° ENE
Aureole 2 Rocket 2.8 18:00:20 10° SSW 18:04:10 66° ESE 18:08:19 10° NNE
Cosmos 2279 Rocket 4.0 18:04:33 10° N 18:10:48 89° ENE 18:17:03 10° S
SL-16 R/B 4.5 18:11:32 10° WNW 18:14:16 13° NNW 18:17:02 10° N
METEOR-M 4.3 18:10:06 10° SE 18:15:16 52° ENE 18:20:28 10° N
FENGYUN 3A 4.3 18:10:40 10° ESE 18:15:19 31° ENE 18:20:00 10° N
Cosmos 2058 2.8 18:11:58 10° S 18:16:04 85° E 18:20:12 10° N
IDEFIX/ARIANE 42P 4.2 18:11:15 10° SSW 18:16:05 38° W 18:20:59 10° NNW
Cosmos 540 Rocket 3.6 18:11:05 10° SSW 18:16:16 77° WNW 18:21:28 10° NNE
Cosmos 2084 4.0 18:13:20 10° WSW 18:17:02 45° NW 18:20:03 14° NNE
SKYMED 2 3.5 18:15:30 10° NNE 18:19:51 65° ESE 18:24:09 10° S
Cosmos 2242 Rocket 4.0 18:16:10 10° N 18:20:19 38° ENE 18:24:29 10° SE
Cosmos 1805 Rocket 3.6 18:17:10 10° S 18:21:33 60° E 18:25:58 10° NNE
Cosmos 2360 Rocket 4.3 18:18:31 10° W 18:22:35 20° NW 18:26:41 10° N
Cosmos 1461 3.0 18:18:50 10° SSW 18:22:51 51° ESE 18:25:03 24° ENE
NOAA 12 4.0 18:18:20 10° SSE 18:23:31 64° ENE 18:28:45 10° N
Lacrosse 5 2.8 18:19:09 10° WNW 18:23:47 34° N 18:26:32 20° NE
Cosmos 1626 2.3 18:22:04 10° S 18:25:41 48° E 18:28:53 13° NNE
ATLAS 5 CENTAUR R/B 3.3 18:21:37 10° NNW 18:26:26 28° NNE 18:28:57 21° ENE
Cosmos 1980 4.1 18:22:59 10° SW 18:28:37 64° WNW 18:34:17 10° NNE
Orbus 7S? 3.9 18:25:50 10° NW 18:29:27 84° NNE 18:37:36 10° ESE
ATLAS 3B R/B 4.0 18:23:42 10° NW 18:29:31 25° N 18:33:09 17° NE
Lacrosse 5 rocket 4.3 18:28:33 10° W 18:30:43 15° SW 18:32:55 10° SSW
Sich 1 3.1 18:29:59 10° S 18:34:18 53° E 18:38:38 10° NNE
Nadezhda 4 Rocket 4.0 18:28:38 10° S 18:34:46 58° E 18:40:58 10° NNE
USA 215 3.2 18:28:26 10° ESE 18:35:01 89° NNE 18:41:37 10° WNW
Cosmos 1356 Rocket 3.2 18:32:04 10° S 18:35:59 61° E 18:39:18 14° NNE
Cosmos 44 3.9 18:31:36 10° SW 18:36:42 56° NW 18:40:34 16° NNE
BREEZE M DEB (TANK) 4.0 18:39:01 10° W 18:40:49 17° SW 18:42:21 10° S
ALOS 2.5 18:38:49 10° SE 18:43:16 47° ENE 18:47:45 10° N
Cosmos 1943 Rocket 3.3 18:39:36 10° N 18:44:01 24° NE 18:44:17 23° NE
Cosmos 1455 2.2 18:40:21 10° N 18:44:10 84° W 18:47:59 10° S
Aureole 1 Rocket 4.2 18:38:57 10° S 18:44:32 51° ESE 18:51:45 10° NNE
Cosmos 1633 Rocket 3.0 18:40:30 10° S 18:44:50 60° E 18:48:43 13° NNE
Cosmos 2219 Rocket 3.5 18:40:21 10° WSW 18:45:31 36° NW 18:50:42 10° NNE
Abrixas 2.5 18:42:53 10° WSW 18:45:46 58° SSE 18:45:53 58° SSE
Cosmos 2333 Rocket 3.4 18:47:36 10° WSW 18:52:52 39° NW 18:58:13 10° NNE
Cosmos 1603 4.2 18:48:05 10° S 18:53:11 37° ESE 18:54:02 35° E
Cosmos 292 Rocket 4.5 18:49:02 10° SSE 18:52:43 33° ESE 18:52:43 33° ESE
Cosmos 1242 Rocket 2.4 18:50:17 10° N 18:53:28 59° NE 18:53:28 59° NE
HJ-1C 4.3 18:55:31 35° NNE 18:55:31 35° NNE 18:57:45 10° N
Helios 1A 4.5 18:56:36 22° NNE 18:56:36 22° NNE 18:58:28 10° N
Cosmos 1184 Rocket 2.6 18:51:54 10° S 18:55:14 79° ESE 18:55:30 71° NE
BREEZE-M DEB (TANK) 3.2 18:54:14 10° SW 18:55:53 32° S 18:55:53 32° S
FengYun 1-2 T 4.1 18:51:16 10° SSE 18:56:46 67° ENE 19:02:14 10° N
Cosmos 1092 Rocket 4.0 18:51:02 10° S 18:57:15 62° E 19:03:31 10° NNE
Cosmos 1703 3.9 18:54:16 10° SSW 18:58:06 55° WNW 19:01:57 10° N
Cosmos 972 Rocket 4.3 18:53:46 10° N 18:58:47 48° ENE 19:00:40 35° ESE
SJ-6B 3.2 18:58:03 10° S 19:02:09 71° WSW 19:06:19 10° NNW
Cosmos 1862 Rocket 3.5 18:59:23 10° N 19:03:45 60° ENE 19:04:40 48° SE
COSMO-SKYMED 1 3.7 19:03:42 10° N 19:07:50 43° WNW 19:11:57 10° SW
CENTAUR R/B 3.9 19:04:14 10° W 19:10:10 33° NNW 19:14:43 18° NNE
Spot 2 Rocket 3.3 19:06:38 10° SSE 19:11:40 78° ENE 19:16:44 10° NNW
Cosmos 2056 Rocket 4.2 19:07:10 10° N 19:11:02 35° NNE 19:11:02 35° NNE
Cosmos 2084 Rocket 3.3 19:10:09 10° NW 19:13:28 62° NNW 19:13:28 62° NNW
FREGAT/IRIS 3.9 19:11:38 10° S 19:14:33 41° W 19:17:29 10° NNW
Iridium 4 Rocket 2.9 19:10:37 10° S 19:15:00 87° E 19:17:05 30° N
Cosmos 1624 Rocket 4.5 19:11:31 10° NNW 19:16:00 43° NE 19:16:00 43° NE
USA 229 DEB 3.6 19:13:04 10° SSW 19:19:50 66° SE 19:22:08 43° ENE
USA 229 3.6 19:13:10 10° SSW 19:19:56 65° SE 19:22:11 43° ENE
Cosmos 2195 Rocket 4.4 19:14:19 10° S 19:20:20 61° E 19:26:24 10° NNE
Cosmos 1666 Rocket 4.4 19:16:55 10° SSW 19:21:09 50° WNW 19:25:28 10° N
Cosmos 2369 Rocket 2.1 19:18:09 10° NNW 19:23:50 69° ENE 19:24:42 59° ESE
Cosmos 2237 Rocket 3.8 19:19:08 10° WSW 19:24:07 31° NW 19:28:44 12° NNE
Resurs 1-3 3.6 19:30:47 82° WSW 19:30:48 82° WSW 19:35:13 10° NNW
Resurs 01 Rocket 1.8 19:27:18 14° S 19:31:05 69° WSW 19:35:32 10° NNW
SL-16 R/B 2.9 19:26:49 10° SW 19:32:20 51° NW 19:35:45 23° NNE
Cosmos 1933 Rocket 4.4 19:28:09 10° S 19:31:02 40° S 19:31:02 40° S
Lacrosse 4 Rocket 3.3 19:31:45 10° NW 19:35:12 27° WSW 19:38:14 12° SSW
Cosmos 1371 Rocket 4.0 19:31:25 10° NNW 19:35:55 63° N 19:35:55 63° N
Cosmos 923 Rocket 3.8 19:32:26 10° SSW 19:37:39 89° ESE 19:37:51 83° NNE
Cosmos 1417 Rocket 4.3 19:34:50 10° N 19:41:04 79° E 19:42:53 48° SSE
Cosmos 1680 Rocket 3.8 19:38:47 10° SSW 19:42:54 56° S 19:42:54 56° S
Meteor 1-26 Rocket 4.3 19:39:43 10° N 19:44:37 64° NNE 19:44:37 64° NNE
Cosmos 1867 3.6 19:43:01 10° NW 19:47:57 71° NNW 19:47:57 71° NNW
CZ-4C R/B 3.0 19:47:37 10° NW 19:53:53 50° NNE 19:53:53 50° NNE
Cosmos 1655 Rocket 3.9 19:48:25 10° S 20:01:01 11° N 20:01:10 10° N
Cosmos 1627 Rocket 4.5 19:50:34 10° SSW 19:56:43 78° W 20:02:53 10° N
Lacrosse 5 3.1 20:02:34 10° NW 20:05:45 36° NNW 20:05:45 36° NNW
ATLAS 5 CENTAUR R/B 2.8 20:06:09 10° NW 20:10:32 53° NNW 20:10:32 53° NNW
S3M 4.2 20:08:57 10° NNW 20:14:38 69° NW 20:14:38 69° NW
ALOS 4.4 20:17:11 10° SW 20:20:56 24° W 20:24:43 10° NW
ATLAS 3B R/B 3.6 20:15:21 10° NW 20:20:25 38° N 20:20:25 38° N
Cosmos 2026 Rocket 4.5 20:17:36 10° SSW 20:23:39 56° WNW 20:29:41 10° N
Cosmos 1943 Rocket 3.5 20:22:52 10° NNW 20:25:50 33° NNW 20:25:50 33° NNW
CENTAUR R/B 4.3 20:57:10 10° NW 21:01:55 26° N 21:01:55 26° N
Cosmos 2369 Rocket 4.3 21:03:04 10° NW 21:06:34 22° W 21:06:34 22° W
CZ-4C R/B 4.4 21:36:11 10° NW 21:39:05 27° WNW 21:39:05 27° WNW
